| time (UTC) | temp C | wind direction | speed KPH | gust KPH | rain 1hr cm | rain 24hr cm | rain mn cm | humidity % | barometer mb |
| 20260507201516 | 10 | 239 | 1.6 | 11.3 | 0.00 | 0.05 | 0.03 | 91 | 1002.4 |
| 20260507200018 | 10 | 223 | 3.2 | 9.7 | 0.00 | 0.05 | 0.03 | 91 | 1002.5 |
| 20260507194517 | 10 | 178 | 1.6 | 11.3 | 0.00 | 0.05 | 0.03 | 91 | 1002.7 |
| 20260507193012 | 10 | 237 | 4.8 | 12.9 | 0.00 | 0.05 | 0.03 | 91 | 1002.9 |
| 20260507191511 | 10 | 251 | 1.6 | 11.3 | 0.00 | 0.05 | 0.03 | 91 | 1002.9 |
| 20260507190011 | 10 | 190 | 1.6 | 8.0 | 0.00 | 0.05 | 0.03 | 91 | 1002.7 |
| 20260507184516 | 9 | 182 | 0.0 | 9.7 | 0.00 | 0.05 | 0.03 | 91 | 1002.7 |
| 20260507183009 | 9 | 189 | 1.6 | 9.7 | 0.00 | 0.05 | 0.03 | 91 | 1002.7 |
| 20260507181507 | 9 | 158 | 4.8 | 16.1 | 0.03 | 0.05 | 0.03 | 91 | 1002.5 |
| 20260507180006 | 8 | 132 | 3.2 | 19.3 | 0.03 | 0.05 | 0.03 | 90 | 1001.7 |
| 20260507174502 | 8 | 101 | 8.0 | 17.7 | 0.03 | 0.05 | 0.03 | 91 | 1002.0 |
| 20260507173058 | 8 | 105 | 6.4 | 14.5 | 0.03 | 0.05 | 0.03 | 90 | 1003.0 |
| 20260507171603 | 8 | 141 | 4.8 | 16.1 | 0.00 | 0.03 | 0.00 | 91 | 1004.1 |
| 20260507170057 | 9 | 134 | 4.8 | 12.9 | 0.00 | 0.03 | 0.00 | 91 | 1003.5 |
| 20260507164605 | 8 | 176 | 0.0 | 8.0 | 0.00 | 0.03 | 0.00 | 91 | 1004.0 |
| 20260507163056 | 8 | 144 | 1.6 | 12.9 | 0.00 | 0.03 | 0.00 | 91 | 1003.6 |
| 20260507161554 | 8 | 140 | 1.6 | 11.3 | 0.00 | 0.03 | 0.00 | 91 | 1003.3 |
| 20260507160051 | 9 | 156 | 4.8 | 11.3 | 0.00 | 0.03 | 0.00 | 90 | 1005.2 |
| 20260507154552 | 9 | 264 | 0.0 | 4.8 | 0.00 | 0.03 | 0.00 | 91 | 1004.4 |
| 20260507153048 | 10 | 227 | 3.2 | 12.9 | 0.00 | 0.03 | 0.00 | 91 | 1004.8 |
| 20260507151547 | 10 | 166 | 9.7 | 25.7 | 0.00 | 0.03 | 0.00 | 90 | 1005.1 |
| 20260507150046 | 10 | 248 | 6.4 | 27.4 | 0.00 | 0.03 | 0.00 | 90 | 1005.3 |
| 20260507144544 | 10 | 200 | 6.4 | 29.0 | 0.00 | 0.03 | 0.00 | 91 | 1005.2 |
| 20260507143042 | 10 | 200 | 11.3 | 25.7 | 0.00 | 0.03 | 0.00 | 91 | 1005.6 |
| 20260507141543 | 10 | 173 | 16.1 | 37.0 | 0.00 | 0.03 | 0.00 | 91 | 1005.6 |
| 20260507140040 | 10 | 173 | 9.7 | 22.5 | 0.00 | 0.03 | 0.00 | 90 | 1005.6 |
| 20260507134538 | 10 | 171 | 9.7 | 24.1 | 0.00 | 0.03 | 0.00 | 90 | 1006.1 |
| 20260507133035 | 10 | 127 | 9.7 | 22.5 | 0.00 | 0.03 | 0.00 | 90 | 1006.2 |
| 20260507131533 | 10 | 177 | 8.0 | 22.5 | 0.00 | 0.03 | 0.00 | 89 | 1006.2 |
| 20260507130039 | 10 | 92 | 8.0 | 25.7 | 0.00 | 0.03 | 0.00 | 90 | 1006.5 |
| 20260507124530 | 10 | 163 | 8.0 | 27.4 | 0.00 | 0.03 | 0.00 | 89 | 1007.0 |
| 20260507123028 | 10 | 160 | 9.7 | 25.7 | 0.00 | 0.03 | 0.00 | 90 | 1007.2 |
| 20260507121527 | 10 | 118 | 12.9 | 25.7 | 0.00 | 0.03 | 0.00 | 89 | 1007.3 |
| 20260507120026 | 10 | 356 | 11.3 | 27.4 | 0.00 | 0.03 | 0.00 | 89 | 1007.0 |
| 20260507114525 | 11 | 176 | 12.9 | 30.6 | 0.00 | 0.05 | 0.00 | 90 | 1007.2 |
| 20260507113023 | 10 | 152 | 8.0 | 33.8 | 0.00 | 0.05 | 0.00 | 89 | 1007.6 |
| 20260507111520 | 11 | 105 | 11.3 | 32.2 | 0.00 | 0.05 | 0.00 | 89 | 1007.4 |
| 20260507110018 | 11 | 179 | 16.1 | 38.6 | 0.00 | 0.05 | 0.00 | 89 | 1007.8 |
| 20260507104516 | 11 | 177 | 12.9 | 43.5 | 0.00 | 0.05 | 0.00 | 89 | 1007.5 |
| 20260507103025 | 11 | 183 | 12.9 | 35.4 | 0.00 | 0.05 | 0.00 | 88 | 1008.1 |
| 20260507101508 | 10 | 150 | 14.5 | 29.0 | 0.00 | 0.05 | 0.00 | 88 | 1007.9 |
| 20260507100006 | 10 | 161 | 11.3 | 37.0 | 0.00 | 0.05 | 0.00 | 87 | 1008.2 |
| 20260507094503 | 10 | 108 | 17.7 | 29.0 | 0.00 | 0.05 | 0.00 | 87 | 1008.3 |
| 20260507093002 | 10 | 124 | 12.9 | 27.4 | 0.00 | 0.05 | 0.00 | 89 | 1008.5 |
| 20260507091600 | 9 | 131 | 11.3 | 27.4 | 0.00 | 0.05 | 0.00 | 86 | 1008.4 |
| 20260507090057 | 8 | 133 | 11.3 | 17.7 | 0.00 | 0.05 | 0.00 | 84 | 1008.4 |
| 20260507084555 | 8 | 119 | 4.8 | 16.1 | 0.00 | 0.05 | 0.00 | 83 | 1008.6 |
| 20260507083052 | 8 | 143 | 4.8 | 17.7 | 0.00 | 0.05 | 0.00 | 82 | 1009.2 |
| 20260507081549 | 8 | 147 | 8.0 | 20.9 | 0.00 | 0.05 | 0.00 | 81 | 1009.5 |
| 20260507080046 | 9 | 124 | 9.7 | 19.3 | 0.00 | 0.05 | 0.00 | 78 | 1009.7 |
| 20260507074546 | 10 | 133 | 8.0 | 22.5 | 0.00 | 0.05 | 0.00 | 77 | 1009.8 |
| 20260507073042 | 10 | 151 | 6.4 | 17.7 | 0.00 | 0.05 | 0.00 | 77 | 1010.2 |
| 20260507071600 | 11 | 97 | 11.3 | 27.4 | 0.00 | 0.05 | 0.00 | 75 | 1010.3 |
| 20260507070040 | 11 | 107 | 8.0 | 20.9 | 0.00 | 0.05 | 0.00 | 75 | 1009.9 |
| 20260507064539 | 11 | 140 | 11.3 | 27.4 | 0.00 | 0.05 | 0.00 | 76 | 1010.4 |
| 20260507063042 | 10 | 113 | 11.3 | 25.7 | 0.00 | 0.05 | 0.00 | 78 | 1010.6 |
| 20260507061535 | 10 | 117 | 4.8 | 17.7 | 0.00 | 0.05 | 0.00 | 78 | 1011.2 |
| 20260507060036 | 10 | 170 | 8.0 | 17.7 | 0.00 | 0.05 | 0.00 | 77 | 1010.9 |
| 20260507054530 | 11 | 117 | 6.4 | 22.5 | 0.00 | 0.05 | 0.00 | 75 | 1011.1 |
| 20260507053035 | 11 | 162 | 9.7 | 20.9 | 0.00 | 0.05 | 0.00 | 75 | 1012.0 |
| 20260507051530 | 11 | 189 | 8.0 | 19.3 | 0.00 | 0.05 | 0.00 | 76 | 1012.7 |
| 20260507050027 | 11 | 158 | 8.0 | 20.9 | 0.00 | 0.05 | 0.00 | 77 | 1013.1 |
| 20260507044521 | 10 | 157 | 4.8 | 17.7 | 0.00 | 0.05 | 0.00 | 77 | 1013.1 |
| 20260507043017 | 10 | 138 | 8.0 | 16.1 | 0.00 | 0.05 | 0.00 | 77 | 1013.6 |
| 20260507041516 | 10 | 151 | 3.2 | 12.9 | 0.00 | 0.05 | 0.00 | 76 | 1013.6 |
| 20260507040015 | 11 | 102 | 8.0 | 16.1 | 0.00 | 0.05 | 0.00 | 75 | 1014.0 |
| 20260507034527 | 11 | 163 | 8.0 | 16.1 | 0.03 | 0.05 | 0.00 | 77 | 1013.9 |
| 20260507033015 | 10 | 127 | 6.4 | 14.5 | 0.03 | 0.05 | 0.00 | 77 | 1014.4 |
| 20260507031505 | 10 | 179 | 6.4 | 16.1 | 0.03 | 0.05 | 0.00 | 78 | 1014.8 |
| 20260507030002 | 10 | 162 | 3.2 | 12.9 | 0.03 | 0.05 | 0.05 | 77 | 1014.9 |
| 20260507024605 | 10 | 162 | 4.8 | 14.5 | 0.00 | 0.03 | 0.03 | 77 | 1015.2 |
| 20260507023057 | 10 | 164 | 6.4 | 17.7 | 0.00 | 0.03 | 0.03 | 77 | 1015.5 |
| 20260507021556 | 10 | 173 | 6.4 | 16.1 | 0.00 | 0.03 | 0.03 | 76 | 1015.8 |
| 20260507020055 | 10 | 139 | 6.4 | 17.7 | 0.00 | 0.03 | 0.03 | 76 | 1016.2 |
| 20260507014602 | 11 | 128 | 4.8 | 22.5 | 0.00 | 0.03 | 0.03 | 75 | 1016.3 |
| 20260507013052 | 11 | 163 | 8.0 | 17.7 | 0.00 | 0.03 | 0.03 | 75 | 1016.4 |
| 20260507011552 | 11 | 165 | 8.0 | 17.7 | 0.00 | 0.03 | 0.03 | 75 | 1016.6 |
| 20260507004601 | 11 | 152 | 6.4 | 22.5 | 0.00 | 0.03 | 0.03 | 74 | 1017.0 |
| 20260507003054 | 11 | 150 | 6.4 | 24.1 | 0.00 | 0.03 | 0.03 | 73 | 1017.0 |
| 20260507001552 | 12 | 194 | 6.4 | 16.1 | 0.00 | 0.03 | 0.03 | 73 | 1016.9 |
| 20260507000048 | 12 | 198 | 3.2 | 17.7 | 0.00 | 0.03 | 0.03 | 71 | 1016.9 |
| 20260506234548 | 12 | 194 | 8.0 | 29.0 | 0.00 | 0.03 | 0.03 | 70 | 1016.8 |
| 20260506233052 | 12 | 198 | 4.8 | 25.7 | 0.00 | 0.03 | 0.03 | 68 | 1016.7 |
| 20260506231545 | 12 | 187 | 6.4 | 19.3 | 0.00 | 0.03 | 0.03 | 68 | 1016.8 |
| 20260506230045 | 13 | 133 | 9.7 | 27.4 | 0.00 | 0.03 | 0.03 | 68 | 1016.9 |
| 20260506224544 | 13 | 159 | 8.0 | 20.9 | 0.00 | 0.05 | 0.03 | 68 | 1016.9 |
| 20260506223043 | 13 | 146 | 9.7 | 19.3 | 0.00 | 0.05 | 0.03 | 68 | 1017.0 |
| 20260506221542 | 13 | 188 | 9.7 | 22.5 | 0.00 | 0.05 | 0.03 | 68 | 1017.0 |
| 20260506220047 | 14 | 202 | 17.7 | 35.4 | 0.00 | 0.05 | 0.03 | 68 | 1017.0 |
| 20260506214549 | 14 | 167 | 11.3 | 38.6 | 0.00 | 0.05 | 0.03 | 68 | 1016.9 |
| 20260506213040 | 15 | 193 | 9.7 | 22.5 | 0.00 | 0.05 | 0.03 | 68 | 1016.9 |
| 20260506211537 | 15 | 216 | 8.0 | 32.2 | 0.00 | 0.05 | 0.03 | 68 | 1016.7 |
| 20260506210036 | 15 | 147 | 17.7 | 29.0 | 0.00 | 0.05 | 0.03 | 67 | 1016.4 |
| 20260506204542 | 16 | 221 | 16.1 | 37.0 | 0.00 | 0.05 | 0.03 | 66 | 1016.7 |
| 20260506203034 | 16 | 150 | 14.5 | 35.4 | 0.00 | 0.05 | 0.03 | 67 | 1016.7 |